Tracking 32954 objects as of 18-Jan-2026
HD Live streaming from Space Station
objects crossing your sky now

NINGXIA-1 8

Track NINGXIA-1 8 now!
10-day predictions


NORAD ID: 49020
Int'l Code: 2021-064C
Perigee: 865.8 km
Apogee: 877.5 km
Inclination: 45.0 °
Period: 102.2 minutes
Semi major axis: 7242 km
RCS: Unknown
Launch date: July 9, 2021
Source: People's Republic of China (PRC)
Launch site: Taiyaun Space Center, China (TSC)
Your satellite tracking list
Your tracking list is empty




NASA's NSSDC Master Catalog

Two Line Element Set (TLE):
1 49020U 21064C   26017.94808788  .00000206  00000-0  19508-3 0  9990
2 49020  44.9918 184.8346 0008069 246.8227 113.1760 14.08508707233041
Source of the keplerian elements: AFSPC